www.pogodaiklimat.ru

Погода и климат >> Архив погоды >> Канада >> Arviat Climate


ПОГОДА в Arviat Climate

  • Прогноз погоды в Arviat Climate
  • Монитор погоды в Arviat Climate
  • Климат города

АРХИВ ПОГОДЫ в Arviat Climate

Время (UTC), дата Ветер
(напр.,м/с)
 
Видим.   Явления Облачность Т
(С)
Тd
(С)
f
(%)
Тe
(С)
Тes
(С)
Комфортность P
(гПа)
Po
(гПа)
Тmin
(С)
Tmax
(С)
R
(мм)
R24
(мм)
S
(см)
21 12.09 С 7 н/о н/о +7.6 +3.3 74 +3 +3 1007.7 1006.5
00 13.09 н/о н/о +6.7 +2.3 73 1009.2 1008.0 +3.3 +8.5
03 13.09 С 4 н/о н/о +4.4 +2.4 87 0 0 1010.2 1009.0
06 13.09 СЗ 5 н/о н/о +2.9 +2.1 94 -2 -2 1011.4 1010.2 +2.7 +8.5 6
09 13.09 С 5 н/о н/о +2.5 +1.2 91 -3 -3 1012.6 1011.4
12 13.09 С 4 н/о н/о +1.3 +0.9 97 -4 -4 1013.9 1012.7 +1.2 +8.5
15 13.09 С 5 н/о н/о +3.8 +2.8 93 -1 -1 1014.6 1013.3
18 13.09 СВ 4 н/о н/о +5.6 +1.8 77 +2 +2 1015.2 1013.9 +1.2 +6.1
21 13.09 СВ 2 н/о н/о +5.8 +0.9 71 +4 +4 1015.7 1014.4
00 14.09 СВ 3 н/о н/о +4.5 +1.3 80 +1 +1 1016.4 1015.1 +1.2 +6.3
03 14.09 В 2 н/о н/о +3.1 +1.4 89 -0 -0 1016.7 1015.4
06 14.09 СЗ 2 н/о н/о +2.0 +1.5 96 -1 -1 1017.3 1016.0 +1.2 +6.3
09 14.09 СЗ 3 н/о н/о +1.1 +0.7 97 -3 -3 1017.7 1016.4
12 14.09 СЗ 2 н/о н/о +1.4 +1.4 100 -2 -2 1018.3 1017.0 +0.5 +6.3
15 14.09 СЗ 2 н/о н/о +4.7 +2.9 88 +2 +2 1018.6 1017.3
18 14.09 СЗ 1 н/о н/о +6.9 +1.2 67 +6 +6 1018.6 1017.3 +0.5 +7.3
21 14.09 З 2 н/о н/о +7.8 +0.8 61 +6 +6 1018.4 1017.1
00 15.09 З 2 н/о н/о +6.8 +3.0 77 +5 +5 1018.7 1017.4 +0.5 +8.4
03 15.09 З 3 н/о н/о +3.4 +2.7 95 -1 -1 1019.1 1017.8
06 15.09 З 5 н/о н/о +2.4 +0.8 89 -3 -3 1019.2 1017.9 +0.5 +8.4
09 15.09 З 3 н/о н/о +0.3 -0.1 97 -5 -5 1019.6 1018.3
12 15.09 СЗ 4 н/о н/о +2.0 +1.9 99 -3 -3 1020.6 1019.3 -0.2 +8.4
15 15.09 СЗ 5 н/о н/о +6.0 +3.7 85 +2 +2 1021.3 1020.0
18 15.09 З 6 н/о н/о +9.1 +2.3 62 +6 +6 1020.7 1019.4 -0.2 +9.2
21 15.09 З 7 н/о н/о +11.3 +3.1 57 +8 +8 1019.8 1018.5
00 16.09 З 5 н/о н/о +10.2 +4.3 67 +8 +8 1019.4 1018.1 -0.2 +11.9
03 16.09 З 5 н/о н/о +7.9 +4.5 79 +4 +4 1019.2 1018.0
06 16.09 З 5 н/о н/о +8.8 +5.3 79 +5 +5 1018.8 1017.6 -0.2 +11.9 21
09 16.09 З 5 н/о н/о +8.1 +5.1 81 +4 +4 1018.9 1017.7
12 16.09 З 6 н/о н/о +8.3 +5.5 83 +4 +4 1019.2 1018.0 +7.6 +11.9
15 16.09 СЗ 6 н/о н/о +10.4 +6.8 78 +7 +7 1020.2 1019.0
18 16.09 С 5 н/о н/о +11.3 +7.3 76 +9 +9 1020.9 1019.7 +7.6 +12.3
21 16.09 С 5 н/о н/о +12.9 +7.5 70 +11 +11 1021.0 1019.8
00 17.09 Ю 3 н/о н/о +8.6 +7.1 90 +6 +6 1021.6 1020.4 +7.8 +13.1
03 17.09 Ю 3 н/о н/о +6.0 +5.5 97 +3 +3 1022.0 1020.8
06 17.09 Ю 3 н/о н/о +5.0 +5.0 100 +2 +2 1022.1 1020.9 +4.7 +13.1
09 17.09 ЮВ 3 н/о н/о +6.1 +5.8 98 +3 +3 1021.9 1020.7
12 17.09 ЮВ 3 н/о н/о +4.5 +4.5 100 +1 +1 1021.4 1020.1 +4.5 +13.1
15 17.09 ЮВ 5 н/о н/о +6.0 +6.0 100 +2 +2 1021.0 1019.7
18 17.09 ЮВ 5 н/о н/о +5.8 +5.3 97 +1 +1 1019.9 1018.6 +4.3 +6.5
21 17.09 ЮВ 5 н/о н/о +5.9 +4.8 93 +2 +2 1018.8 1017.5
00 18.09 ЮВ 5 н/о н/о +5.4 +5.0 97 +1 +1 1017.7 1016.4 +4.3 +7.0
03 18.09 ЮВ 5 н/о н/о +4.7 +4.7 100 -0 -0 1017.1 1015.8
06 18.09 ЮВ 3 н/о н/о +4.9 +4.7 99 +1 +1 1016.0 1014.8 +4.3 +7.0
09 18.09 В 2 н/о н/о +5.3 +5.2 99 +3 +3 1015.1 1013.9
12 18.09 В 3 н/о н/о +5.1 +5.0 99 +2 +2 1014.1 1012.9 +4.3 +7.0
15 18.09 Ю 2 н/о н/о +4.7 +4.7 100 +2 +2 1014.2 1013.0
18 18.09 н/о н/о +7.5 +5.7 88 1013.7 1012.5 +4.3 +7.5
21 18.09 СВ 3 н/о н/о +7.1 +5.9 92 +4 +4 1013.0 1011.8
00 19.09 СВ 3 н/о н/о +6.6 +5.7 94 +4 +4 1012.9 1011.7 +4.4 +8.0
03 19.09 СВ 3 н/о н/о +6.5 +5.5 93 +4 +4 1013.3 1012.1
06 19.09 СВ 2 н/о н/о +6.2 +4.9 91 +4 +4 1013.8 1012.6 +4.4 +8.0
09 19.09 СВ 2 н/о н/о +6.2 +5.6 96 +4 +4 1014.4 1013.2
12 19.09 СВ 2 н/о н/о +5.7 +4.0 89 +4 +4 1015.2 1014.0 +5.3 +8.0
15 19.09 СВ 5 н/о н/о +5.7 +4.8 94 +1 +1 1016.5 1015.3
18 19.09 В 3 н/о н/о +7.5 +3.3 75 +5 +5 1017.3 1016.1 +5.3 +8.1

 

Местоположение метеостанции Arviat Climate (Канада): широта 61.10 долгота -94.06 высота над уровнем моря 10 м.

В архиве по умолчанию представлена погода в Arviat Climate за последнюю неделю. Архивные данные за месяц целиком и за предыдущие месяцы, начиная с января 2011 года, Вы можете получить, выбрав интересующий диапазон дат из раскрывающегося списка и нажав кнопку "Ввод!".

Внимание! Время в таблицах - всемирное. Для получения местного времени необходимо прибавить поправку, которая в Arviat Climate равна -6 ч.

Смотрите также архив погоды в соседних городах и на ближайших метеорологических станциях:

Погода в Arviat Airport (Канада) (1 км)
Погода в Rankin Inlet (Канада) (217 км)
Погода в Churchill Climate (Канада) (265 км)
Погода в Tadoule Lake (Канада) (362 км)
Погода в Baker Lake Airport (Канада) (370 км)
Погода в Baker Lake Climate (Канада) (372 км)
Погода в Dubawnt Lake (Канада) (462 км)
Погода в Gillam (Канада) (530 км)
Погода в Back River MAPS (Канада) (567 км)
Погода в Wager Bay (Канада) (579 км)

Пояснения к столбцам:

Ветер - указаны скорость ветра в м/с - средняя за 10 мин, порывы в срок и между сроками (в фигурных скобках) и направление, откуда дует ветер: С - северный, СВ - северо-восточный, В - восточный, ЮВ - юго-восточный, Ю - южный, ЮЗ - юго-западный, З - западный, СЗ - северо-западный.
Видимость - горизонтальная дальность видимости в метрах или километрах. При видимости от 1 до 10 км при отсутствии осадков обычно наблюдается дымка, при ухудшении видимости до 1 км и менее - туман. В сухую погоду видимость может ухудшаться дымом, пылью или мглою.
Явления - указаны атмосферные явления, наблюдавшиеся в срок или в последний час перед сроком; фигурными скобками обозначены явления, наблюдавшиеся между сроками (за 1-3 часа до срока); квадратными скобками обозначены град или гололедные отложения с указанием их диаметра в мм.
Облачность - указаны через наклонную черту общая и нижняя облачность в баллах и высота нижней границы облаков в метрах; квадратными скобками обозначены формы облаков: Ci - перистые, Cs - перисто-слоистые, Cc - перисто-кучевые, Ac - высококучевые, As - высокослоистые, Sc - слоисто-кучевые, Ns - слоисто-дождевые, Cu - кучевые, Cb - кучево-дождевые. Подробнее классификацию облаков см. в Атласе облаков (PDF).
T - Температура воздуха - температура, измеренная на высоте 2 м над землей.
Td - Температура точки росы - температура, при понижении до которой содержащийся в воздухе водяной пар достигнет насыщения.
f - Относительная влажность воздуха - влажноcть воздуха, измеренная на высоте 2 м над землей.
Te - Эффективная температура - температура, которую ощущает одетый по сезону человек в тени. Характеристика душности погоды. При расчете учитывается влияние влажности воздуха и скорости ветра на теплоощущения человека.
Tes - Эффективная температура на солнце - температура, которую ощущает человек, с поправкой на солнечный нагрев. Характеристика знойности погоды. Зависит от высоты солнца над горизонтом, облачности и скорости ветра. Ночью, в пасмурную погоду, а также при ветре 12 м/с и более поправка равна нулю.
P - Атмосферное давление - приведенное к уровню моря атмосферное давление.
Po - Атмосферное давление - измеренное на уровне метеостанции атмосферное давление.
Tmin - Минимальная температура - минимум температуры воздуха на высоте 2 м над землей.
Tmax - Максимальная температура - максимум температуры воздуха на высоте 2 м над землей.
R - Количество осадков - Количество выпавших осадков за период времени, мм. При наведении курсора мыши на число - период времени, за который выпало указанное количество осадков.
R24 - Количество осадков - Количество выпавших осадков за 24 часа, мм.
S - Снежный покров - Высота снежного покрова, см. При наведении курсора мыши на число - состояние снежного покрова и степень покрытия местности в баллах.